Location: Borgo
(42.3939°N, 9.2791°E)
Time: 00:34:39
(UTC+00:00)

ARGOS Delta rocket - Pass Details

Date: 27 February 2020
Orbit: 636 x 837 km, 96.5° (Epoch: 04 April)

Event Time Altitude Azimuth Distance (km) Brightness Sun altitude
Exits shadow 19:13:08 78° 81° (E) 661 3.4 -23.5°
Maximum altitude 19:13:09 78° 77° (ENE) 661 3.4 -23.5°
Drops below altitude 10° 19:17:39 10° 352° (N) 2,072 6.5 -24.3°
Sets 19:19:54 0° 351° (N) 3,009 7.3 -24.8°
